Regional Weather Roundup
Issued by NWS Mt. Holly, NJ

Home | Current Version | Previous Version | Text Only | Print | Product List | Glossary On
Versions: 1 2 3 4 5 6 7 8 9 10 11 12 13 14 15 16 17 18 19 20 21 22 23 24 25 26 27 28 29 30 31 32 33 34 35 36 37 38 39 40 41 42 43 44 45 46 47 48 49 50
000
ASUS41 KPHI 312210
RWRPHI

REGIONAL WEATHER ROUNDUP
NATIONAL WEATHER SERVICE MOUNT HOLLY NJ
500 PM EST SAT JAN 31 2015

NOTE:  "FAIR" INDICATES FEW OR NO CLOUDS BELOW 12,000 FEET WITH NO
SIGNIFICANT WEATHER AND/OR OBSTRUCTIONS TO VISIBILITY.

 * = STATION DOES NOT REPORT PRECIPITATION (E.G. RAIN, SNOW, ETC.)
        OR FOG.

NJZ015>026-312300-
SOUTHERN NEW JERSEY

CITY           SKY/WX    TMP DP  RH WIND       PRES   REMARKS
POMONA         CLEAR     27   5  39 W20G26    30.17R WCI  13
RIO GRANDE*    CLEAR     28   7  40 W15G23    30.22R WCI  17
MILLVILLE      CLEAR     27   6  41 W12G25    30.21R WCI  17
WRIGHTSTOWN    CLEAR     25   3  38 NW13G21   30.15R WCI  14
MOUNT HOLLY    CLEAR     26   5  40 NW10G21   30.19S WCI  16
TRENTON        CLEAR     26   3  37 W10       30.16S WCI  16

$$
NJZ001>014-312300-
NORTHERN NEW JERSEY

CITY           SKY/WX    TMP DP  RH WIND       PRES   REMARKS
SUSSEX         CLEAR     21   1  41 MISG      30.12S
ANDOVER*         N/A     21   2  43 NW10G17   30.13R WCI  10
MORRISTOWN     CLEAR     25   3  39 N12G17    30.14R WCI  14
NEWARK         CLEAR     25   1  35 NW16G26   30.14R WCI  12
TETERBORO      CLEAR     24   0  35 NW15G23   30.13R WCI  11
CALDWELL       CLEAR     23   0  36 NW13G23   30.14R WCI  11
SOMERVILLE     CLEAR     25   2  37 NW8       30.14R WCI  16
ALLAIRE*       CLEAR     25   1  36 NW18G28   30.13R WCI  11
TOMS RIVER*    CLEAR     25   3  39 NW17      30.15S WCI  11

$$
PAZ043-044-047-054-055-060>062-066>071-312300-
EASTERN PENNSYLVANIA

CITY           SKY/WX    TMP DP  RH WIND       PRES   REMARKS
PHILADELPHIA   CLEAR     28   5  37 W16       30.22R WCI  16
NORTH PHILA    CLEAR     28   4  35 W10G20    30.20S WCI  19
BLUE BELL      CLEAR     28   9  43 W8        30.18R WCI  20
DOYLESTOWN     CLEAR     24   6  46 NW14      30.15S WCI  12
QUAKERTOWN*    CLEAR     25   7  46 W7G18     30.16S WCI  17
POTTSTOWN      CLEAR     24   6  46 NW15G22   30.20R WCI  11
LANCASTER      CLEAR     24   7  48 NW10      30.21S WCI  14
COATESVILLE    CLEAR     25  10  54 W13       30.19S WCI  13
READING        CLEAR     25   6  44 NW12      30.20R WCI  14
ALLENTOWN      CLEAR     26   5  40 W12       30.16S WCI  16
MOUNT POCONO   CLEAR     16   2  54 NW15G25   30.02S WCI   1
HAZLETON       CLEAR     21   5  49 W9G17     30.12R WCI  11
WILKES BARRE   CLEAR     21   4  47 NW12      30.15S WCI   9

$$
DEZALL-MDZ008-012-015-019-020-312300-
DELAWARE AND EASTERN MARYLAND

CITY           SKY/WX    TMP DP  RH WIND       PRES   REMARKS
WILMINGTON     CLEAR     27   6  41 NW15      30.23R WCI  15
DOVER          CLEAR     29   6  38 NW16G26   30.23R WCI  17
GEORGETOWN     CLEAR     29   6  38 W12G21    30.24R WCI  19
EASTON         CLEAR     30  10  43 NW7       30.29S WCI  23
PATUXENT       PTCLDY    32   5  32 W12       30.27R WCI  23
OCEAN CITY     CLEAR     30   7  37 NW9G17    30.23R WCI  22
WALLOPS ISLAND CLEAR     30   8  39 NW14G25   30.25R WCI  19
CAMBRIDGE      CLEAR     32   7  34 NW9G16    30.27R WCI  24
SALISBURY      CLEAR     32   6  33 W14G23    30.24R WCI  22

$$
PAZ001-021-NYZ056-072-MDZ011-DCZ001-312300-
OTHER NEARBY LOCATIONS

CITY           SKY/WX    TMP DP  RH WIND       PRES   REMARKS
HARRISBURG     PTCLDY    25   8  48 W7        30.22F WCI  17
STATE COLLEGE  CLEAR     23   9  54 W12       30.17F WCI  12
WILLIAMSPORT   CLEAR     26   7  44 W10       30.18F WCI  16
BINGHAMTON     PTCLDY    13   4  67 NW8       30.10F WCI   2
NEW YORK CITY  CLEAR     25   0  33 NW17G24   30.13R WCI  12
BALTIMORE      PTCLDY    30   6  36 W7        30.25S WCI  23
WASHINGTON DC  PTCLDY    35   8  32 NW8       30.28S WCI  29

$$



USA.gov is the U.S. government's official web portal to all federal, state and local government web resources and services.